Location: Eastview
(35.0756°N, 88.5453°W)
Time: 04:56:12
(UTC+00:00)

YAOGAN 6 - Pass Details

Date: 22 November 2019
Orbit: 467 x 504 km, 97.0° (Epoch: 15 December)

Event Time Altitude Azimuth Distance (km) Brightness Sun altitude
Rises 23:19:43 0° 132° (SE) 2,495 5.9 -7.4°
Reaches altitude 10° 23:22:19 10° 111° (ESE) 1,621 4.8 -7.9°
Maximum altitude 23:24:33 16° 71° (ENE) 1,281 4.0 -8.4°
Drops below altitude 10° 23:26:47 10° 30° (NNE) 1,628 4.8 -8.8°
Sets 23:29:24 0° 9° (N) 2,510 5.9 -9.3°
